Weather in Sergeevka

Ukraine / Odesa District     46°01′41″N   30°22′12″E
temp.,
°C
wind,
m/s
gust,
m/s
humid.,
%
clouds,
%
prec.,
mm/h
press.,
hPa
HPBL,
m
28 february, sun
sun2823:00+5nw5118351 0.0 1023615
02:00+5nnw7118171 0.3 1024720
05:00+4nnw6117981 0.1 1024901
08:00+4nnw7117890 0.2 10251006
11:00+6nnw796184 0.1 10261327
14:00+6nnw7106092 0.1 10261388
17:00+5nnw6963100 0.1 10261290
20:00+4nw5967100 0.1 1026820
1 march, mon
mon123:00+3w357399 0.0 1026146
02:00+2wnw4796100 0.0 1025370
05:00+3nw4696100 0.8 1024340
08:00+3nnw3495100 1.1 1025355
11:00+4nne3488100 0.1 1027386
14:00+4ne4686100 0.3 1028523
17:00+4nne467996 0.1 1029671
20:00+3n598595 0.2 1032575
2 march, tue
tue223:00+2n488691 0.0 1033277
02:00+3n377194 0.0 1033477
05:00+2nnw358398 0.0 1032254
08:00+2wnw347986 0.0 1032138
11:00+6wnw346160 0.0 10321022
14:00+7w465879 0.0 10301032
17:00+8w585895 0.0 1027714
20:00+5w5106850 0.0 1026219
3 march, wed
wed323:00+5w614650 0.0 1025330
02:00+5nw614770 0.0 1025503
05:00+4n8127548 0.0 1026844
08:00+5n7106973 0.0 10281082
11:00+6nnw6859100 0.0 10291069
14:00+9nnw564663 0.0 10281240
17:00+8nnw35504 0.0 10281075
20:00+5nw22642 0.0 102922
4 march, thu
thu423:00+4w11690 0.0 102822
02:00+3sw33720 0.0 102737
05:00+3sw45840 0.0 102596
08:00+5sw59800 0.0 1024306
11:00+8ssw710680 0.0 1022515
14:00+9ssw912660 0.0 1019658
17:00+7ssw913720 0.0 1017439
20:00+6ssw813820 0.0 1016365